Regional Weather Roundup
Issued by NWS

Home | Current Version | Previous Version | Text Only | Print | Product List | Glossary On
Versions: 1 2 3 4 5 6 7 8 9 10 11 12 13 14 15 16 17 18 19 20 21 22 23 24 25 26 27 28 29 30 31 32 33 34 35 36 37 38 39 40 41 42 43 44 45 46 47 48 49 50
670
ASUS44 KLUB 200201
RWRTX
WEST TEXAS WEATHER ROUNDUP
NATIONAL WEATHER SERVICE LUBBOCK TX
800 PM CST THU JAN 19 2017

NOTE: "FAIR" INDICATES FEW OR NO CLOUDS BELOW 12,000 FEET WITH NO
SIGNIFICANT WEATHER AND/OR OBSTRUCTIONS TO VISIBILITY.

TXZ004-006>008-010-012-014-016-OKZ002-200300-
TEXAS PANHANDLE/OKLAHOMA PANHANDLE

CITY           SKY/WX    TMP DP  RH WIND       PRES   REMARKS
AMARILLO       CLEAR     41  28  60 E7        29.56S
BORGER         CLOUDY    41  36  82 NE8       29.56F
CANADIAN       CLEAR     35  33  94 SW5       29.58S WCI  31
DALHART        CLOUDY    42  29  59 E6        29.56R
DUMAS          CLOUDY    38  34  87 E6        29.56S WCI  33
GUYMON         CLOUDY    37  37 100 NE5       29.57F FOG     WCI  33
HEREFORD       CLOUDY    50  31  48 W17       29.59R
PAMPA          CLOUDY    35  33  91 E7        29.57F WCI  30
$$

TXZ026-029-035-045-048-200300-
SOUTHERN PANHANDLE/SOUTH PLAINS/ROLLING PLAINS

CITY           SKY/WX    TMP DP  RH WIND       PRES   REMARKS
CHILDRESS      CLEAR     52  35  52 E5        29.55F
SEMINOLE       CLOUDY    51  32  47 W12       29.70F
LUBBOCK        CLOUDY    49  31  49 W14       29.62S
PLAINVIEW      CLOUDY    45  32  59 W14       29.61R
SNYDER         CLEAR     51  37  57 SW14      29.66R
$$

TXZ052-054-060>062-072-078-127-140-154-169-200300-
PERMIAN BASIN/CONCHO VALLEY/BIG COUNTRY/EDWARDS PLATEAU

CITY           SKY/WX    TMP DP  RH WIND       PRES   REMARKS
ABILENE        CLOUDY    57  36  45 SW10      29.64S
BIG SPRING     PTCLDY    53  35  51 SW10      29.72R
BROWNWOOD      PTCLDY    55  39  54 S6        29.69R
JUNCTION       CLEAR     58  40  51 CALM      29.73R
MIDLAND        CLEAR     56  31  38 SW18      29.71R
ODESSA         CLEAR     55  29  36 W17       29.73R
SAN ANGELO     MOCLDY    61  31  32 SW14      29.71R
SONORA         CLEAR     59  32  36 SW6       29.79S
WINK           CLOUDY    57  28  33 W15       29.75R
$$

TXZ055-058-074-075-080-082-200300-
FAR WEST/SOUTHWEST MOUNTAINS/TRANS PECOS

CITY           SKY/WX    TMP DP  RH WIND       PRES   REMARKS
ALPINE         CLEAR     43  25  48 SW5       29.91F
DRYDEN           N/A     57  31  37 W8        29.77R
EL PASO        CLOUDY    53  26  35 W12G28    29.85R
FORT STOCKTON  CLEAR     55  25  31 W13       29.79R
MARFA          CLEAR     44  23  43 SW5       29.88F
PECOS          CLEAR     55  28  36 SW6       29.79S
$$

TXZ014-016-019-021>030-083-200300
TEXAS TECH WEST TEXAS MESONET/TEXAS PANHANDLE/NORTHERN SOUTH PLAINS

CITY           SKY/WX    TMP DP  RH WIND       PRES   REMARKS
ABERNATHY 5ENE   N/A     49  33  54 W16       29.64R
AMARILLO 9NNE    N/A     44  29  57 SE6       29.55S
AMARILLO 7SSE    N/A     43  26  51 S9        29.57S
AMHERST 1NE      N/A     49  31  49 SW14      29.64R
BOOTLEG 11WNW    N/A     47  27  46 W23       29.61S
CANADIAN 6E      N/A     39  36  89 N13       29.55S WCI  31
CAPROCK CYN SP   N/A     56  32  40 W17       29.56S
CHILDRESS 2NNE   N/A     55  31  39 NE6       29.55S
CLARENDON 2WSW   N/A     44  31  60 E7        29.56S
CLAUDE 12SW      N/A     45  26  46 SE8       29.57R
DIMMITT 2NE      N/A     48  31  52 SW16      29.60R
FLOYDADA 2NNE    N/A     48  34  57 SW16      29.60R
FRIONA 2NE       N/A     49  29  47 W14       29.61R
GOODLETT 3W      N/A     55  34  44 E5        29.54S
HART 3N          N/A     46  32  59 W15       29.62R
HEREFORD 2NW     N/A     47  28  47 W17       29.59R
MCLEAN 1E        N/A     43  34  70 NE9       29.55S
MEMPHIS 1NE      N/A     47  34  61 N2        29.55S
MULESHOE 2SSW    N/A     51  29  42 SW10      29.63R
OLTON 6S         N/A     47  31  54 SW10      29.63R
PALO DURO SP     N/A     53  29  40 SW8       29.58S
PAMPA 2E         N/A     33  32  94 NE6       29.56F WCI  28
PLAINVIEW 1S     N/A     48  34  56 SW8       29.61R
SILVERTON 7ESE   N/A     49  33  53 SW12      29.57S
TULIA 2ENE       N/A     49  34  56 W17       29.58R
TURKEY 2WSW      N/A     47  39  73 SW9       29.55S
UMBARGER 3NNE    N/A     46  33  62 SW14      29.58R
$$

TXZ033>036-039>041-045>048-200300
TEXAS TECH WEST TEXAS MESONET/SOUTH PLAINS

CITY           SKY/WX    TMP DP  RH WIND       PRES   REMARKS
AIKEN 3WSW       N/A     45  34  65 SW12      29.62R
ANDREWS 2NE      N/A     52  28  39 SW12      29.71S
ANTON 6SSW       N/A     49  33  52 W14       29.64S
BROWNFIELD 2S    N/A     50  32  48 W10       29.66S
DENVR CTY 7WNW   N/A     50  32  50 SW22      29.67F
GAIL 2ESE        N/A     52  31  44 W10       29.65S
LAMESA 2SE       N/A     51  33  49 SW10      29.68S
LEVELLAND 4S     N/A     50  27  41 W14       29.65F
LUBBOCK 3WNW     N/A     52  28  39 W10       29.64F
MORTON 1ENE      N/A     53  25  34 SW17      29.64F
ODONNELL 1N      N/A     50  32  50 SW14      29.66S
PLAINS 3N        N/A     49  30  48 W14       29.67F
RALLS 1SE        N/A     52  31  45 W16       29.63R
REESE CENTER     N/A     48  29  47 W8        29.64F
SEAGRAVES 1SW    N/A     50  33  51 SW12      29.68S
SEMINOLE 2NNE    N/A     51  31  46 SW9       29.69S
SLATON 2NE       N/A     52  30  43 W15       29.64S
SNYDER 3E        N/A     55  37  50 SW13      29.65R
SUNDOWN 8SW      N/A     43  28  55 SW9       29.66S
TAHOKA 3NNE      N/A     49  33  53 W9        29.66R
WOLFFORTH 6SSW   N/A     50  30  45 SW10      29.65S
$$

TXZ031-032-036>038-042>044-200300-
TEXAS TECH WEST TEXAS MESONET/ROLLING PLAINS

CITY           SKY/WX    TMP DP  RH WIND       PRES   REMARKS
ASPERMONT 3NE    N/A     56  34  43 SW9       29.60R
FLUVANNA 3WNW    N/A     53  32  44 SW14      29.65R
GRAHAM 5SSW      N/A     54  32  44 SW15      29.65R
GUTHRIE 10WSW    N/A     55  33  43 SW13      29.58S
HASKELL 1NW      N/A     51  40  64 SW9       29.60R
JAYTON 1SSE      N/A     57  32  39 SW8       29.61R
KNOX CITY 3NW    N/A     53  38  55 S10       29.58S
LK A HENRY 1NW   N/A     54  32  43 W9        29.63S
NORTHFIELD 1S    N/A     53  36  53 SW9       29.55S
PADUCAH 10SW     N/A     54  37  51 SW10      29.56S
POST 1NE         N/A     55  34  45 SW13      29.63S
RRING SPRGS 3N   N/A     56  34  43 W13       29.57S
SEYMOUR 3NW      N/A     52  41  66 S2        29.56S
SPUR 1W          N/A     51  33  48 W8        29.60R
WEINERT 2NNE     N/A     52  40  65 SW12      29.59R
WHITE RVR 6NE    N/A     56  29  34 W17       29.60S
$$

TXZ052-054-060>062-072-078-127-140-154-169-200300-
TEXAS TECH WEST TEXAS MESONET/PERMIAN BASIN/
CONCHO VALLEY/BIG COUNTRY/EDWARDS PLATEAU

CITY           SKY/WX    TMP DP  RH WIND       PRES   REMARKS
COYANOSA 2N      N/A     58  26  28 SW14      29.79S
JUNCTION 1SSW    N/A     56  40  56 SW6       29.74R
MERTZON 3NNE     N/A     61  30  30 W12       29.73R
SAN ANGELO 7NW   N/A     61  30  31 SW8       29.71R
STRLNG CT 4WSW   N/A     59  31  35 SW17      29.71R
ST LAWRNCE 5SW   N/A     54  33  45 SW15      29.72S
SWEETWATR 11SW   N/A     56  35  43 SW13      29.67S
WALL 1E          N/A     54  37  52 CALM      29.72R
$$

TXZ055-058-074-075-080-082-200300-
TEXAS TECH WEST TEXAS MESONET/FAR WEST/SOUTHWEST MOUNTAINS/TRANS PECOS

CITY           SKY/WX    TMP DP  RH WIND       PRES   REMARKS
PRSMN GAP BBNP   N/A     60  24  24 W7        29.82R
GUADLPE MTN NP   N/A     45  23  42 SW30G43   29.76R
$$




USA.gov is the U.S. government's official web portal to all federal, state and local government web resources and services.